sat.trackr.live / text

‹ back to catalog

STARLINK-1371

NORAD 45542 · 2020-025M

PAYLOAD ACTIVE UNKNOWN

§ Identity

Operator
Country
US
Launch date
2020-04-22
Launch site
AFETR
Launch vehicle
Mass (kg)
RCS (m²)

Purposes: comms

External: N2YO · Heavens-Above · Gunter

§ Orbital elements

Epoch: 2026-05-25T02:43:15.027168Z

Period
92.35 min
Inclination
53.0444°
Eccentricity
0.0006283
Mean motion
15.59358299 rev/d
Perigee alt
385.3 km
Apogee alt
393.8 km
Semi-major
6,767.7 km
B*
1.0252e-3
RAAN
80.7694°
Arg perigee
73.0129°
Mean anomaly
287.1571°
Rev number
33,721

§ Raw data

STARLINK-13711 45542U 20025M   26145.11336837  .00082754  00000+0  10252-2 0  99962 45542  53.0444  80.7694 0006283  73.0129 287.1571 15.59358299337210

JSON: /api/v1/satellites/45542 · /tle

For live sub-satellite position, see the globe view (requires WebGL).

§ Visibility from observer

Set your observer location to see the next 7 days of passes ≥ 10°. The values pass through the URL so the page stays shareable.

No JS? Fill the form by hand. The geolocation button needs JavaScript.